Hourly Data Report for December 06, 2018

TORONTO CITY
ONTARIO
Current Station Operator: ECCC - MSC

43°40'00.000" N
79°24'00.000" W
112.50 m
6158355
71508
XTO

Download Data

Hourly Data (December 2018)
Hourly Data Report for December 6, 2018
TIME
LST
Temp Definition
°C
Dew Point Definition
°C
Rel Hum Definition
%
Precip. Amount Definition
mm

Wind Dir Definition
10's deg

Wind Spd Definition
km/h
Visibility Definition
km
Stn Press Definition
kPa
Hmdx Definition


Wind Chill Definition


Weather Definition


00:00 0.4 -4.9 67 0.0 LegendMM LegendMM   100.34     LegendNANA
01:00 0.4 -4.3 71 0.0 LegendMM LegendMM   100.34     LegendNANA
02:00 0.0 -6.0 64 0.0 LegendMM LegendMM   100.35     LegendNANA
03:00 -0.2 -6.1 64 0.0 LegendMM LegendMM   100.37     LegendNANA
04:00 -0.6 -5.0 72 0.0 LegendMM LegendMM   100.32     LegendNANA
05:00 -0.4 -6.2 65 0.0 LegendMM LegendMM   100.30     LegendNANA
06:00 -0.8 -5.7 70 0.0 LegendMM LegendMM   100.31     LegendNANA
07:00 -1.1 -5.6 71 0.0 LegendMM LegendMM   100.34     LegendNANA
08:00 -1.1 -5.1 74 0.0 LegendMM LegendMM   100.33     LegendNANA
09:00 -0.5 -4.3 76 0.0 LegendMM LegendMM   100.31     LegendNANA
10:00 0.4 -3.7 74 0.0 LegendMM LegendMM   100.28     LegendNANA
11:00 1.7 -3.4 68 0.0 LegendMM LegendMM   100.23     LegendNANA
12:00 2.0 -3.3 68 0.0 LegendMM LegendMM   100.19     LegendNANA
13:00 2.2 -3.4 66 0.0 LegendMM LegendMM   100.14     LegendNANA
14:00 2.1 -2.7 70 0.0 LegendMM LegendMM   100.10     LegendNANA
15:00 1.6 -1.9 78 0.0 LegendMM LegendMM   100.08     LegendNANA
16:00 1.3 -1.4 82 0.0 LegendMM LegendMM   100.12     LegendNANA
17:00 1.1 -2.6 76 0.2 LegendMM LegendMM   100.19     LegendNANA
18:00 0.7 -3.2 75 0.0 LegendMM LegendMM   100.29     LegendNANA
19:00 0.2 -4.8 69 0.0 LegendMM LegendMM   100.38     LegendNANA
20:00 -0.6 -4.5 75 0.0 LegendMM LegendMM   100.50     LegendNANA
21:00 -0.9 -5.9 69 0.0 LegendMM LegendMM   100.58     LegendNANA
22:00 -1.4 -7.4 64 0.0 LegendMM LegendMM   100.69     LegendNANA
23:00 -2.3 -9.3 59 0.0 LegendMM LegendMM   100.79     LegendNANA

Notes on Data Quality.

Legend

  • E = Estimated
  • M = Missing
  • NA = Not Available*
  • [empty] = Indicates an unobserved value
Date modified: